Home   Weather   Jennersdorf   Past weeks

Flag for Austria Past Weather in Jennersdorf, Burgenland, Austria — Yesterday and Last 2 Weeks

Now
26 °F

Chilly.


Feels Like: 26 °F
Forecast: 26 / 44 °F
Wind: No wind

Location: Murska Sobota

Current Time: Dec 10, 2016 at 2:31:25 am

Latest Report: Dec 10, 2016 at 1:00 am


Visibility: N/A

Pressure: 30.44 "Hg

Humidity: 96%

Dew Point: 25 °F

Location of JennersdorfLocation

Past Weather in Jennersdorf — Graph

°F

Jennersdorf Temperature Yesterday

Maximum temperature yesterday: 37 °F (at 3:00 pm)
Minimum temperature yesterday: 27 °F (at 9:00 pm)
Average temperature yesterday: 29 °F

High & Low Weather Summary for the Past Weeks

 TemperatureHumidityPressure
High50 °F (Dec 2, 1:00 pm)100% (Dec 6, 1:00 pm)30.75 "Hg (Dec 6, 1:00 pm)
Low22 °F (Nov 30, 1:00 am)38% (Nov 28, 3:00 pm)29.89 "Hg (Dec 2, 6:00 am)
Average33 °F84%30.31 "Hg
* Reported Nov 25 12:00 am — Dec 10 12:00 am, Jennersdorf, Weather by CustomWeather, © 2016

Note: Actual official high and low records may vary slightly from our data, if they occured in-between our weather recording intervals... More about our weather records

Advertising

Jennersdorf Weather History for the Previous 24 Hours

Scroll right to see more
 ConditionsComfort  
Time TempWeatherWind HumidityBarometerVisibility
12:00 am
Sat, Dec 10
26 °FChilly.1 mph96%30.45 "HgN/A
11:00 pm
Fri, Dec 9
28 °FChilly.1 mph96%30.46 "HgN/A
10:00 pm27 °FChilly.1 mph96%30.45 "HgN/A
9:00 pm27 °FChilly.1 mph95%30.46 "HgN/A
8:00 pm27 °FChilly.No wind96%30.45 "HgN/A
7:00 pm28 °FFog.No wind96%30.43 "Hg1 mi
6:00 pm29 °FChilly.1 mph95%30.42 "HgN/A
4:00 pm34 °FChilly.1 mph92%30.40 "HgN/A
3:00 pm37 °FChilly.1 mph90%30.40 "HgN/A
2:00 pm35 °FFog.1 mph92%30.41 "Hg1 mi
1:00 pm34 °FFog.1 mph95%30.43 "Hg1 mi
11:00 am30 °FChilly.1 mph96%30.46 "HgN/A
10:00 am28 °FChilly.2 mph96%30.47 "HgN/A
9:00 am27 °FChilly.2 mph96%30.46 "HgN/A
7:00 am28 °FFog.1 mph96%30.47 "Hg0 mi
6:00 am28 °FChilly.No wind96%30.47 "HgN/A
5:00 am28 °FChilly.1 mph96%30.46 "HgN/A
4:00 am28 °FChilly.1 mph96%30.46 "HgN/A
3:00 am28 °FChilly.No wind96%30.47 "HgN/A
2:00 am28 °FChilly.1 mph96%30.48 "HgN/A
Weather by CustomWeather, © 2016

See weather overviewHow to use our weather pages